ACA753 KBOS-CYUL

Flight info

Callsign ACA753
Flight time 0h 50m
Altitude 28000
Route HYLND7 HYLND DCT PBERG CARTR5
Aircraft A320/M-SDE3FGHIRWY/LB1

Departure

Time 2026-05-06 23:26
Airport Boston Logan International Airport (KBOS)

Arrival

Time 2026-05-07 00:16
Airport Montreal / Pierre Elliott Trudeau International Airport (CYUL)
Time Latitude Longitude Altitude Speed Heading
2026-05-06 22:56 42.36356 -71.02164 25 ft 0 kts 39°
2026-05-06 23:08 42.36354 -71.02166 25 ft 2 kts 38°
2026-05-06 23:08 42.36333 -71.02185 27 ft 4 kts 21°
2026-05-06 23:09 42.36307 -71.02193 27 ft 4 kts 353°
2026-05-06 23:09 42.36284 -71.02180 25 ft 3 kts 306°
2026-05-06 23:09 42.36280 -71.02171 25 ft 0 kts 302°
2026-05-06 23:12 42.36289 -71.02191 26 ft 10 kts 302°
2026-05-06 23:13 42.36317 -71.02267 24 ft 7 kts 280°
2026-05-06 23:13 42.36311 -71.02310 24 ft 3 kts 245°
2026-05-06 23:13 42.36301 -71.02325 26 ft 3 kts 225°
2026-05-06 23:13 42.36283 -71.02336 24 ft 3 kts 194°
2026-05-06 23:14 42.36256 -71.02343 24 ft 5 kts 190°
2026-05-06 23:14 42.36252 -71.02344 24 ft 0 kts 190°
2026-05-06 23:14 42.36248 -71.02345 24 ft 2 kts 189°
2026-05-06 23:14 42.36182 -71.02353 24 ft 12 kts 184°
2026-05-06 23:15 42.36103 -71.02332 28 ft 12 kts 153°
2026-05-06 23:15 42.36033 -71.02264 24 ft 13 kts 134°
2026-05-06 23:15 42.35989 -71.02175 25 ft 10 kts 117°
2026-05-06 23:15 42.35967 -71.02114 25 ft 0 kts 116°
2026-05-06 23:16 42.35967 -71.02113 25 ft 0 kts 113°
2026-05-06 23:16 42.35986 -71.02024 25 ft 12 kts 83°
2026-05-06 23:16 42.35968 -71.01931 26 ft 9 kts 117°
2026-05-06 23:16 42.35945 -71.01876 27 ft 5 kts 120°
2026-05-06 23:17 42.35926 -71.01824 27 ft 8 kts 111°
2026-05-06 23:17 42.35910 -71.01740 28 ft 11 kts 101°
2026-05-06 23:17 42.35904 -71.01699 29 ft 0 kts 102°
2026-05-06 23:17 42.35902 -71.01688 29 ft 3 kts 102°
2026-05-06 23:18 42.35913 -71.01645 28 ft 4 kts 40°
2026-05-06 23:18 42.35953 -71.01618 28 ft 16 kts 25°
2026-05-06 23:18 42.36055 -71.01565 28 ft 0 kts 17°
2026-05-06 23:18 42.36063 -71.01562 27 ft 4 kts 18°
2026-05-06 23:19 42.36151 -71.01516 28 ft 14 kts 31°
2026-05-06 23:19 42.36173 -71.01462 26 ft 5 kts 74°
2026-05-06 23:19 42.36225 -71.01386 23 ft 18 kts 25°
2026-05-06 23:19 42.36319 -71.01338 23 ft 8 kts 19°
2026-05-06 23:20 42.36395 -71.01302 23 ft 26 kts 19°
2026-05-06 23:20 42.36530 -71.01237 23 ft 15 kts 20°
2026-05-06 23:20 42.36608 -71.01200 28 ft 9 kts 19°
2026-05-06 23:20 42.36686 -71.01163 27 ft 18 kts 20°
2026-05-06 23:21 42.36783 -71.01156 25 ft 13 kts 336°
2026-05-06 23:21 42.36855 -71.01210 25 ft 10 kts
2026-05-06 23:21 42.36912 -71.01181 23 ft 7 kts 31°
2026-05-06 23:21 42.36972 -71.01124 24 ft 15 kts 36°
2026-05-06 23:22 42.37076 -71.01053 21 ft 0 kts 21°
2026-05-06 23:22 42.37082 -71.01049 21 ft 2 kts 22°
2026-05-06 23:22 42.37168 -71.01000 21 ft 33 kts 24°
2026-05-06 23:22 42.37323 -71.00898 20 ft 15 kts 24°
2026-05-06 23:23 42.37408 -71.00855 21 ft 11 kts 19°
2026-05-06 23:23 42.37456 -71.00832 22 ft 8 kts 20°
2026-05-06 23:23 42.37522 -71.00799 23 ft 21 kts 20°
2026-05-06 23:23 42.37682 -71.00719 26 ft 23 kts 19°
2026-05-06 23:24 42.37774 -71.00678 28 ft 13 kts 19°
2026-05-06 23:24 42.37837 -71.00585 27 ft 13 kts 96°
2026-05-06 23:24 42.37835 -71.00575 27 ft 0 kts 103°
2026-05-06 23:25 42.37827 -71.00529 28 ft 16 kts 105°
2026-05-06 23:25 42.37754 -71.00491 26 ft 12 kts 197°
2026-05-06 23:25 42.37624 -71.00551 28 ft 45 kts 199°
2026-05-06 23:25 42.37103 -71.00801 20 ft 110 kts 199°
2026-05-06 23:26 42.36270 -71.01171 368 ft 122 kts 197°
2026-05-06 23:26 42.35563 -71.01496 1074 ft 104 kts 205°
2026-05-06 23:26 42.34788 -71.01913 1234 ft 137 kts 193°
2026-05-06 23:26 42.33839 -71.01506 1769 ft 162 kts 152°
2026-05-06 23:27 42.33167 -71.00500 1975 ft 188 kts 140°
2026-05-06 23:27 42.32365 -70.99062 2133 ft 193 kts 138°
2026-05-06 23:27 42.31608 -70.97536 2268 ft 207 kts 126°
2026-05-06 23:27 42.31245 -70.95477 2485 ft 247 kts 95°
2026-05-06 23:28 42.31532 -70.93057 2875 ft 272 kts 82°
2026-05-06 23:28 42.31917 -70.90534 3641 ft 278 kts 81°
2026-05-06 23:28 42.32312 -70.87955 4479 ft 282 kts 81°
2026-05-06 23:28 42.32578 -70.86210 4909 ft 292 kts 80°
2026-05-06 23:29 42.33001 -70.83430 5497 ft 308 kts 80°
2026-05-06 23:29 42.33743 -70.79680 6618 ft 316 kts 66°
2026-05-06 23:29 42.34451 -70.77910 7211 ft 317 kts 54°
2026-05-06 23:29 42.35875 -70.75694 8057 ft 317 kts 37°
2026-05-06 23:30 42.37694 -70.74047 8918 ft 314 kts 20°
2026-05-06 23:30 42.39737 -70.73056 9784 ft 312 kts 11°
2026-05-06 23:30 42.41851 -70.72310 10425 ft 319 kts
2026-05-06 23:30 42.44116 -70.72086 10695 ft 334 kts 351°
2026-05-06 23:31 42.46444 -70.72520 11231 ft 337 kts 339°
2026-05-06 23:31 42.48662 -70.73561 11961 ft 335 kts 328°
2026-05-06 23:31 42.50748 -70.74908 12720 ft 338 kts 327°
2026-05-06 23:31 42.52741 -70.76584 13469 ft 334 kts 315°
2026-05-06 23:32 42.54391 -70.78783 14129 ft 330 kts 302°
2026-05-06 23:32 42.55684 -70.81305 14788 ft 330 kts 297°
2026-05-06 23:32 42.56954 -70.83921 15462 ft 333 kts 297°
2026-05-06 23:32 42.58237 -70.86570 16126 ft 336 kts 297°
2026-05-06 23:33 42.59537 -70.89249 16792 ft 340 kts 297°
2026-05-06 23:33 42.60848 -70.91941 17445 ft 343 kts 297°
2026-05-06 23:33 42.62162 -70.94634 18091 ft 347 kts 297°
2026-05-06 23:33 42.63503 -70.97379 18646 ft 350 kts 297°
2026-05-06 23:34 42.64857 -71.00158 19224 ft 353 kts 297°
2026-05-06 23:34 42.65840 -71.02179 19640 ft 355 kts 297°
2026-05-06 23:34 42.67197 -71.05001 19903 ft 356 kts 297°
2026-05-06 23:34 42.68545 -71.07811 20444 ft 359 kts 297°
2026-05-06 23:35 42.69932 -71.10683 21044 ft 362 kts 297°
2026-05-06 23:35 42.71307 -71.13519 21621 ft 365 kts 298°
2026-05-06 23:35 42.72716 -71.16420 22193 ft 367 kts 298°
2026-05-06 23:35 42.74130 -71.19337 22766 ft 370 kts 298°
2026-05-06 23:36 42.75556 -71.22287 23328 ft 373 kts 298°
2026-05-06 23:36 42.76990 -71.25254 23796 ft 376 kts 298°
2026-05-06 23:36 42.78653 -71.28050 24272 ft 385 kts 309°
2026-05-06 23:36 42.80679 -71.30444 24745 ft 391 kts 314°
2026-05-06 23:37 42.82790 -71.32798 25170 ft 392 kts 314°
2026-05-06 23:37 42.84911 -71.35175 25640 ft 393 kts 314°
2026-05-06 23:37 42.87006 -71.37531 26078 ft 395 kts 313°
2026-05-06 23:37 42.89130 -71.39932 26525 ft 396 kts 313°
2026-05-06 23:38 42.91252 -71.42344 26964 ft 397 kts 313°
2026-05-06 23:38 42.93389 -71.44757 27403 ft 398 kts 313°
2026-05-06 23:38 42.95536 -71.47176 27710 ft 400 kts 313°
2026-05-06 23:38 42.97637 -71.49534 27784 ft 388 kts 313°
2026-05-06 23:39 42.99697 -71.51835 27767 ft 380 kts 313°
2026-05-06 23:39 43.01774 -71.54186 27772 ft 393 kts 313°
2026-05-06 23:39 43.03911 -71.56627 27774 ft 405 kts 313°
2026-05-06 23:39 43.06108 -71.59139 27776 ft 414 kts 313°
2026-05-06 23:40 43.08302 -71.61636 27773 ft 417 kts 313°
2026-05-06 23:40 43.10550 -71.64185 27772 ft 418 kts 313°
2026-05-06 23:40 43.12800 -71.66733 27769 ft 418 kts 313°
2026-05-06 23:40 43.15015 -71.69243 27768 ft 418 kts 313°
2026-05-06 23:41 43.17258 -71.71788 27771 ft 418 kts 313°
2026-05-06 23:41 43.19506 -71.74349 27770 ft 419 kts 313°
2026-05-06 23:41 43.21748 -71.76912 27768 ft 419 kts 313°
2026-05-06 23:41 43.23965 -71.79449 27770 ft 419 kts 313°
2026-05-06 23:42 43.26210 -71.82018 27771 ft 419 kts 313°
2026-05-06 23:42 43.28448 -71.84579 27773 ft 419 kts 313°
2026-05-06 23:42 43.30692 -71.87148 27772 ft 419 kts 313°
2026-05-06 23:42 43.32939 -71.89722 27770 ft 419 kts 313°
2026-05-06 23:43 43.35157 -71.92268 27773 ft 419 kts 313°
2026-05-06 23:43 43.37399 -71.94852 27768 ft 419 kts 313°
2026-05-06 23:43 43.39634 -71.97430 27771 ft 419 kts 313°
2026-05-06 23:43 43.41853 -71.99987 27774 ft 419 kts 314°
2026-05-06 23:44 43.44098 -72.02570 27776 ft 420 kts 314°
2026-05-06 23:44 43.46344 -72.05159 27781 ft 420 kts 313°
2026-05-06 23:44 43.48560 -72.07719 27781 ft 420 kts 313°
2026-05-06 23:44 43.50803 -72.10315 27782 ft 420 kts 314°
2026-05-06 23:45 43.53048 -72.12917 27784 ft 421 kts 313°
2026-05-06 23:45 43.55294 -72.15520 27786 ft 421 kts 314°
2026-05-06 23:45 43.57542 -72.18124 27786 ft 421 kts 314°
2026-05-06 23:45 43.59763 -72.20696 27792 ft 422 kts 314°
2026-05-06 23:46 43.62011 -72.23310 27791 ft 423 kts 313°
2026-05-06 23:46 43.64268 -72.25942 27791 ft 423 kts 313°
2026-05-06 23:46 43.66526 -72.28577 27793 ft 424 kts 313°
2026-05-06 23:46 43.68788 -72.31213 27792 ft 424 kts 314°
2026-05-06 23:47 43.71018 -72.33813 27795 ft 424 kts 313°
2026-05-06 23:47 43.73283 -72.36461 27783 ft 424 kts 313°
2026-05-06 23:47 43.75544 -72.39104 27785 ft 425 kts 313°
2026-05-06 23:47 43.77780 -72.41719 27785 ft 425 kts 313°
2026-05-06 23:48 43.80045 -72.44374 27787 ft 425 kts 313°
2026-05-06 23:48 43.82313 -72.47033 27784 ft 425 kts 313°
2026-05-06 23:48 43.84546 -72.49659 27782 ft 426 kts 313°
2026-05-06 23:48 43.86812 -72.52326 27783 ft 426 kts 314°
2026-05-06 23:49 43.89082 -72.54998 27798 ft 427 kts 313°
2026-05-06 23:49 43.91349 -72.57669 27805 ft 427 kts 313°
2026-05-06 23:49 43.93622 -72.60347 27811 ft 428 kts 313°
2026-05-06 23:49 43.95872 -72.63001 27823 ft 428 kts 313°
2026-05-06 23:50 43.98145 -72.65688 27825 ft 429 kts 313°
2026-05-06 23:50 44.02683 -72.71047 27829 ft 429 kts 313°
2026-05-06 23:50 44.04964 -72.73748 27836 ft 430 kts 313°
2026-05-06 23:51 44.07250 -72.76460 27835 ft 430 kts 313°
2026-05-06 23:51 44.09531 -72.79173 27836 ft 431 kts 313°
2026-05-06 23:51 44.11818 -72.81900 27839 ft 431 kts 313°
2026-05-06 23:51 44.14067 -72.84584 27842 ft 432 kts 313°
2026-05-06 23:52 44.16233 -72.87164 27834 ft 432 kts 313°
2026-05-06 23:52 44.18515 -72.89875 27842 ft 423 kts 313°
2026-05-06 23:52 44.20736 -72.92507 27848 ft 416 kts 313°
2026-05-06 23:52 44.22933 -72.95123 27849 ft 413 kts 313°
2026-05-06 23:53 44.25088 -72.97700 27757 ft 414 kts 313°
2026-05-06 23:53 44.27266 -73.00311 27454 ft 411 kts 313°
2026-05-06 23:53 44.29429 -73.02912 27199 ft 409 kts 312°
2026-05-06 23:53 44.31586 -73.05511 26808 ft 407 kts 312°
2026-05-06 23:54 44.33730 -73.08091 26325 ft 405 kts 312°
2026-05-06 23:54 44.35862 -73.10656 25855 ft 402 kts 312°
2026-05-06 23:54 44.37955 -73.13174 25373 ft 400 kts 312°
2026-05-06 23:54 44.40063 -73.15711 24888 ft 397 kts 311°
2026-05-06 23:55 44.42157 -73.18234 24376 ft 395 kts 311°
2026-05-06 23:55 44.44240 -73.20747 23872 ft 393 kts 311°
2026-05-06 23:55 44.46310 -73.23247 23346 ft 391 kts 311°
2026-05-06 23:55 44.48345 -73.25708 22809 ft 389 kts 311°
2026-05-06 23:56 44.50397 -73.28192 22318 ft 386 kts 311°
2026-05-06 23:56 44.52397 -73.30617 21834 ft 383 kts 311°
2026-05-06 23:56 44.54406 -73.33054 21356 ft 380 kts 311°
2026-05-06 23:56 44.56401 -73.35475 20873 ft 377 kts 311°
2026-05-06 23:57 44.58387 -73.37888 20408 ft 374 kts 310°
2026-05-06 23:57 44.60331 -73.40252 19946 ft 372 kts 310°
2026-05-06 23:57 44.62285 -73.42631 19486 ft 369 kts 310°
2026-05-06 23:57 44.64220 -73.44992 19034 ft 367 kts 310°
2026-05-06 23:58 44.66149 -73.47352 18579 ft 364 kts 310°
2026-05-06 23:58 44.68048 -73.49667 18133 ft 363 kts 313°
2026-05-06 23:58 44.70220 -73.51566 17784 ft 374 kts 328°
2026-05-06 23:58 44.72758 -73.52608 17304 ft 385 kts 345°
2026-05-06 23:59 44.75437 -73.52957 16820 ft 386 kts 348°
2026-05-06 23:59 44.78081 -73.53257 16348 ft 383 kts 349°
2026-05-06 23:59 44.80738 -73.53555 15878 ft 381 kts 349°
2026-05-06 23:59 44.83362 -73.53854 15543 ft 374 kts 349°
2026-05-07 00:00 44.85940 -73.54156 15091 ft 372 kts 349°
2026-05-07 00:00 44.88481 -73.54442 14844 ft 356 kts 349°
2026-05-07 00:00 44.90923 -73.54702 14259 ft 347 kts 349°
2026-05-07 00:00 44.92510 -73.54873 13907 ft 344 kts 349°
2026-05-07 00:01 44.95673 -73.55219 13342 ft 341 kts 349°
2026-05-07 00:01 44.98036 -73.55480 12941 ft 338 kts 349°
2026-05-07 00:01 45.00372 -73.55740 12539 ft 336 kts 349°
2026-05-07 00:01 45.02697 -73.55998 12137 ft 334 kts 349°
2026-05-07 00:02 45.05002 -73.56250 11733 ft 332 kts 349°
2026-05-07 00:02 45.07301 -73.56503 11317 ft 330 kts 349°
2026-05-07 00:02 45.09473 -73.56740 10935 ft 328 kts 349°
2026-05-07 00:02 45.11735 -73.56988 10752 ft 323 kts 349°
2026-05-07 00:03 45.13911 -73.57221 10499 ft 306 kts 349°
2026-05-07 00:03 45.15981 -73.57445 10276 ft 299 kts 349°
2026-05-07 00:03 45.18096 -73.57387 10109 ft 310 kts
2026-05-07 00:03 45.20193 -73.56631 9743 ft 310 kts 11°
2026-05-07 00:04 45.22239 -73.55781 9345 ft 307 kts 11°
2026-05-07 00:04 45.24273 -73.54934 8950 ft 304 kts 12°
2026-05-07 00:04 45.26303 -73.54104 8551 ft 301 kts 12°
2026-05-07 00:04 45.28296 -73.53305 8162 ft 291 kts 12°
2026-05-07 00:05 45.30181 -73.52559 7772 ft 278 kts 12°
2026-05-07 00:05 45.32010 -73.51844 7391 ft 265 kts 12°
2026-05-07 00:05 45.33759 -73.51169 7012 ft 254 kts 12°
2026-05-07 00:05 45.35435 -73.50534 6637 ft 243 kts 11°
2026-05-07 00:06 45.37023 -73.49943 6273 ft 234 kts 11°
2026-05-07 00:06 45.38580 -73.49374 5875 ft 227 kts 11°
2026-05-07 00:06 45.40093 -73.48825 5485 ft 221 kts 11°
2026-05-07 00:06 45.41563 -73.48295 5097 ft 218 kts 11°
2026-05-07 00:07 45.43036 -73.47769 4708 ft 217 kts 11°
2026-05-07 00:07 45.44508 -73.47245 4327 ft 218 kts 11°
2026-05-07 00:07 45.45986 -73.46718 4020 ft 217 kts 11°
2026-05-07 00:07 45.47412 -73.46205 3997 ft 205 kts 11°
2026-05-07 00:08 45.48776 -73.45711 4013 ft 202 kts 11°
2026-05-07 00:08 45.50140 -73.45217 4010 ft 201 kts 11°
2026-05-07 00:08 45.51377 -73.44768 4007 ft 201 kts 11°
2026-05-07 00:08 45.52589 -73.44337 4003 ft 199 kts 11°
2026-05-07 00:09 45.53918 -73.43858 4011 ft 201 kts 11°
2026-05-07 00:09 45.55277 -73.43366 4001 ft 201 kts
2026-05-07 00:09 45.56211 -73.43276 3980 ft 199 kts 348°
2026-05-07 00:09 45.57428 -73.44066 3709 ft 194 kts 321°
2026-05-07 00:10 45.58792 -73.45723 3386 ft 193 kts 317°
2026-05-07 00:10 45.59464 -73.46591 3250 ft 192 kts 316°
2026-05-07 00:10 45.60441 -73.47856 3050 ft 191 kts 316°
2026-05-07 00:10 45.61419 -73.49149 3000 ft 190 kts 310°
2026-05-07 00:11 45.61866 -73.49997 3008 ft 189 kts 300°
2026-05-07 00:11 45.62312 -73.51754 3006 ft 190 kts 275°
2026-05-07 00:11 45.62136 -73.53609 3011 ft 190 kts 258°
2026-05-07 00:11 45.61792 -73.55442 3013 ft 191 kts 254°
2026-05-07 00:12 45.61034 -73.56999 3016 ft 198 kts 222°
2026-05-07 00:12 45.59987 -73.58236 3016 ft 197 kts 226°
2026-05-07 00:12 45.58983 -73.59570 2972 ft 195 kts 226°
2026-05-07 00:12 45.58037 -73.60822 2784 ft 179 kts 226°
2026-05-07 00:13 45.57141 -73.62004 2560 ft 172 kts 226°
2026-05-07 00:13 45.56270 -73.63153 2332 ft 168 kts 226°
2026-05-07 00:13 45.55425 -73.64266 2099 ft 166 kts 226°
2026-05-07 00:13 45.54577 -73.65382 1872 ft 164 kts 225°
2026-05-07 00:14 45.53749 -73.66471 1654 ft 163 kts 225°
2026-05-07 00:14 45.52924 -73.67555 1424 ft 155 kts 224°
2026-05-07 00:14 45.52154 -73.68566 1212 ft 145 kts 225°
2026-05-07 00:14 45.51419 -73.69532 1010 ft 142 kts 224°
2026-05-07 00:15 45.50704 -73.70471 802 ft 141 kts 223°
2026-05-07 00:15 45.49981 -73.71419 616 ft 141 kts 222°
2026-05-07 00:15 45.49258 -73.72368 414 ft 141 kts 223°
2026-05-07 00:15 45.48538 -73.73313 227 ft 140 kts 223°
2026-05-07 00:16 45.47843 -73.74225 117 ft 127 kts 223°
2026-05-07 00:16 45.47327 -73.74901 117 ft 77 kts 223°
2026-05-07 00:16 45.47003 -73.75326 115 ft 49 kts 223°
2026-05-07 00:16 45.46805 -73.75556 115 ft 35 kts 201°
2026-05-07 00:17 45.46617 -73.75628 116 ft 12 kts 192°
2026-05-07 00:17 45.46613 -73.75629 115 ft 0 kts 192°
2026-05-07 00:17 45.46548 -73.75650 114 ft 19 kts 192°
2026-05-07 00:17 45.46461 -73.75678 115 ft 0 kts 192°
2026-05-07 00:18 45.46417 -73.75692 114 ft 22 kts 192°
2026-05-07 00:18 45.46280 -73.75725 115 ft 19 kts 182°
2026-05-07 00:18 45.46145 -73.75712 114 ft 20 kts 175°
2026-05-07 00:18 45.46060 -73.75759 115 ft 12 kts 248°
2026-05-07 00:19 45.46044 -73.75887 116 ft 14 kts 271°
2026-05-07 00:19 45.45977 -73.75953 115 ft 12 kts 182°
2026-05-07 00:19 45.45896 -73.75950 114 ft 7 kts 167°
2026-05-07 00:19 45.45854 -73.75939 115 ft 6 kts 169°
2026-05-07 00:20 45.45820 -73.75930 115 ft 4 kts 169°
2026-05-07 00:20 45.45777 -73.75878 116 ft 12 kts 128°
2026-05-07 00:20 45.45746 -73.75823 112 ft 0 kts 128°
2026-05-07 00:20 45.45737 -73.75807 113 ft 4 kts 128°
2026-05-07 00:21 45.45732 -73.75798 114 ft 3 kts 128°
2026-05-07 00:21 45.45726 -73.75742 115 ft 0 kts 64°
2026-05-07 00:21 45.45739 -73.75704 113 ft 15 kts 65°
2026-05-07 00:21 45.45763 -73.75541 114 ft 2 kts 81°
2026-05-07 00:22 45.45762 -73.75528 115 ft 1 kts 96°
2026-05-07 00:22 45.45761 -73.75521 114 ft 0 kts 96°
2026-05-07 00:22 45.45761 -73.75520 114 ft 0 kts 96°
2026-05-07 00:22 45.45761 -73.75517 114 ft 3 kts 97°
2026-05-07 00:23 45.45754 -73.75480 113 ft 12 kts 105°
2026-05-07 00:23 45.45741 -73.75428 115 ft 3 kts 110°
2026-05-07 00:23 45.45737 -73.75409 114 ft 0 kts 109°
2026-05-07 00:24 45.45731 -73.75388 113 ft 0 kts 111°